[[{"header":{"parameterUnit":"m.s-1","parameterCategory":1,"la1":30.2991,"la2":30.254,"lo1":-89.0895,"lo2":-89.0444,"dy":0.0017,"dx":0.0017,"nx":28,"ny":28,"refTime":"2025-02-10T03:00:00:Z","depth":0,"parameterNumber":2,"parameterNumberName":"U-component_of_WINDS"},"data":[0,0,0,0,0,0,0,0,0,0,0,0,0,0,0,0,0,0,0,0,0,0,0,0,0,0,0,0,0,0,0,0,0,0,0,0,0,0,0,0,0,0,0,0,0,0,0,0,0,0,0,0,0,0,0,0,0,0,-1.1215,-1.1215,0,-1.12,-1.12,-1.12,-1.1172,-1.1171,-1.1171,-1.117,-1.1155,-1.1155,-1.1155,0,0,0,0,0,0,0,0,0,0,0,0,0,-1.122,-1.1221,-1.1215,-1.1215,-1.1215,-1.12,-1.12,-1.12,-1.1172,-1.1171,-1.117,-1.117,-1.1155,-1.1155,-1.1155,0,0,0,0,0,0,0,0,0,0,0,0,0,-1.1213,-1.1221,-1.1215,-1.1199,-1.1197,-1.12,-1.12,-1.12,-1.1172,-1.1171,-1.117,-1.1169,-1.1155,-1.1155,-1.1156,-1.1173,0,0,-1.1156,-1.1156,0,0,0,0,0,0,0,0,-1.1214,-1.1213,-1.1202,-1.12,-1.1198,-1.1187,-1.1196,-1.1191,-1.1172,-1.1182,-1.117,-1.1169,-1.1166,-1.1166,-1.1165,-1.1172,-1.1172,-1.1156,-1.1156,-1.1156,-1.1156,0,0,0,0,0,0,0,-1.1214,-1.1213,-1.1209,-1.1201,-1.1199,-1.1193,-1.1191,-1.1195,-1.1179,-1.1181,-1.1179,-1.1177,-1.1165,-1.1165,-1.1164,-1.1171,-1.1156,-1.1156,-1.1156,-1.1156,-1.1192,-1.1193,0,0,0,0,0,0,-1.1217,-1.1214,-1.121,-1.1209,-1.1204,-1.1193,-1.1191,-1.1191,-1.1179,-1.1176,-1.1178,-1.1176,-1.1165,-1.1164,-1.1163,-1.1183,-1.1156,-1.1156,-1.1156,-1.1192,-1.1193,-1.1194,0,0,0,0,0,0,-1.1217,-1.1217,-1.121,-1.1211,-1.1209,-1.1194,-1.1195,-1.1192,-1.1191,-1.1177,-1.1174,-1.118,-1.1164,-1.1163,-1.1171,-1.1182,-1.1156,-1.1157,-1.1191,-1.1192,-1.1193,-1.1221,0,0,0,0,0,0,-1.1217,-1.1217,-1.1223,-1.1211,-1.121,-1.1217,-1.1195,-1.1192,-1.1191,-1.1188,-1.1178,-1.1175,-1.1163,-1.1171,-1.1171,-1.1182,-1.1157,-1.1189,-1.1191,-1.1193,-1.1219,-1.1224,-1.1227,0,0,0,0,0,-1.1218,-1.1232,-1.1224,-1.1223,-1.1217,-1.1218,-1.1217,-1.1203,-1.1192,-1.1198,-1.1189,-1.1175,-1.1181,-1.1172,-1.1172,-1.1183,-1.1189,-1.1191,-1.1193,-1.1218,-1.1223,-1.1227,0,0,0,0,0,0,-1.1246,-1.123,-1.1221,-1.1231,-1.1226,-1.1213,-1.1221,-1.1209,-1.1207,-1.1205,-1.1187,-1.1185,-1.1195,-1.119,-1.118,-1.1199,-1.1183,-1.1185,-1.1202,-1.1206,-1.121,-1.1211,-1.1157,0,0,0,0,0,-1.1253,-1.1255,-1.1242,-1.1252,-1.125,-1.1236,-1.1236,-1.1226,-1.122,-1.1218,-1.1209,-1.1204,-1.1205,-1.1205,-1.1205,-1.1219,-1.1216,-1.1226,-1.123,-1.1234,-1.1235,-1.1242,-1.1246,-1.12,-1.12,-1.12,0,0,-1.1268,-1.126,-1.1262,-1.1258,-1.1253,-1.1255,-1.1234,-1.1238,-1.124,-1.1218,-1.1224,-1.1218,-1.1212,-1.1222,-1.1227,-1.1218,-1.1248,-1.1236,-1.1239,-1.1238,-1.1244,-1.1249,-1.1253,-1.1201,-1.1201,-1.1201,0,0,-1.1297,-1.1292,-1.13,-1.1295,-1.1288,-1.1278,-1.128,-1.1269,-1.1264,-1.127,-1.1254,-1.1256,-1.1258,-1.1254,-1.1252,-1.128,-1.1267,-1.1281,-1.13,-1.1307,-1.131,-1.1314,-1.1323,-1.1327,-1.1283,-1.1283,-1.1283,0,-1.1317,-1.132,-1.1306,-1.131,-1.1309,-1.1289,-1.1297,-1.1294,-1.1287,-1.1286,-1.1277,-1.1278,-1.1272,-1.1282,-1.1289,-1.1288,-1.129,-1.1281,-1.1311,-1.1314,-1.1317,-1.1326,-1.133,-1.1284,-1.1284,-1.1284,-1.1284,0,-1.1345,-1.1348,-1.1355,-1.1349,-1.1348,-1.1355,-1.1341,-1.1342,-1.1332,-1.1324,-1.1331,-1.1323,-1.1321,-1.1323,-1.1313,-1.1331,-1.1326,-1.1314,-1.1297,-1.1323,-1.1331,-1.1335,-1.1286,-1.1286,-1.1285,-1.1285,0,0,-1.139,-1.1376,-1.1379,-1.1376,-1.1366,-1.1368,-1.1374,-1.1372,-1.1373,-1.1369,-1.1374,-1.1376,-1.1365,-1.1363,-1.1353,-1.1359,-1.1381,-1.1346,-1.1346,-1.1352,-1.14,-1.1408,-1.1412,-1.1373,-1.1374,-1.1374,-1.14,0,-1.1417,-1.1425,-1.1412,-1.1424,-1.1426,-1.1408,-1.1414,-1.1409,-1.1401,-1.1402,-1.1394,-1.1396,-1.1382,-1.138,-1.1386,-1.1377,-1.139,-1.1375,-1.1377,-1.1377,-1.1378,-1.1416,-1.1425,-1.145,-1.1403,-1.1404,-1.1404,0,-1.1448,-1.1446,-1.1458,-1.1448,-1.1448,-1.1453,-1.145,-1.1451,-1.1445,-1.144,-1.1438,-1.1426,-1.1431,-1.1416,-1.1423,-1.1413,-1.1413,-1.1409,-1.141,-1.1409,-1.1391,-1.1415,-1.1457,-1.1461,-1.1409,-1.1409,-1.1408,0,-1.1479,-1.1479,-1.1486,-1.1484,-1.1473,-1.1476,-1.1472,-1.1465,-1.1465,-1.1463,-1.1462,-1.1461,-1.146,-1.1459,-1.1447,-1.1437,-1.1456,-1.1439,-1.1451,-1.1451,-1.1454,-1.1454,-1.1496,-1.1456,-1.1456,-1.1456,-1.1456,0,-1.1509,-1.1517,-1.1499,-1.1504,-1.1512,-1.1498,-1.1506,-1.15,-1.1495,-1.1498,-1.1483,-1.1486,-1.147,-1.1472,-1.1463,-1.147,-1.147,-1.1465,-1.1462,-1.1466,-1.1466,-1.1465,-1.1463,-1.1457,-1.1457,-1.1457,-1.1457,0,-1.1544,-1.1533,-1.1539,-1.1529,-1.1526,-1.1533,-1.1523,-1.1527,-1.1519,-1.1523,-1.1523,-1.1511,-1.1512,-1.15,-1.1499,-1.1493,-1.1504,-1.1499,-1.1506,-1.1504,-1.1516,-1.1514,-1.1557,-1.1562,-1.152,-1.1521,-1.1521,0,-1.1564,-1.1569,-1.1559,-1.156,-1.1556,-1.1558,-1.1557,-1.1544,-1.1544,-1.1538,-1.1542,-1.1542,-1.1541,-1.1544,-1.1535,-1.1534,-1.1528,-1.1543,-1.1528,-1.1531,-1.1528,-1.1527,-1.1527,-1.1546,-1.1547,-1.1547,-1.1548,0,-1.1599,-1.1594,-1.1593,-1.1591,-1.1591,-1.1589,-1.1585,-1.1587,-1.1572,-1.1573,-1.1574,-1.1574,-1.1573,-1.1573,-1.157,-1.1566,-1.1554,-1.1553,-1.1555,-1.1558,-1.1562,-1.1559,-1.1514,-1.1551,-1.1551,-1.1551,-1.1551,-1.155,-1.1627,-1.1631,-1.1624,-1.1624,-1.1621,-1.1618,-1.1621,-1.1613,-1.1614,-1.1612,-1.1604,-1.1606,-1.1601,-1.1596,-1.1593,-1.1595,-1.1588,-1.1591,-1.1592,-1.1593,-1.1595,-1.1562,-1.1595,-1.1595,-1.1594,-1.1594,-1.1594,0,-1.1661,-1.1656,-1.1656,-1.1652,-1.1652,-1.1642,-1.1638,-1.1639,-1.1641,-1.1637,-1.1636,-1.1637,-1.1637,-1.1629,-1.1628,-1.1631,-1.1626,-1.1631,-1.163,-1.1629,-1.1602,-1.1599,-1.1636,-1.1636,-1.1635,-1.1635,-1.1635,-1.1635,-1.1678,-1.1684,-1.1678,-1.1682,-1.1677,-1.1679,-1.1678,-1.1676,-1.1672,-1.1674,-1.1674,-1.1668,-1.1663,-1.1661,-1.1661,-1.1659,-1.1659,-1.1666,-1.1661,-1.1635,-1.1631,-1.1628,-1.1625,-1.1666,-1.1666,-1.1689,-1.1689,-1.1689]},{"header":{"parameterUnit":"m.s-1","parameterCategory":1,"la1":30.2991,"la2":30.254,"lo1":-89.0895,"lo2":-89.0444,"dy":0.0017,"dx":0.0017,"nx":28,"ny":28,"refTime":"2025-02-10T03:00:00:Z","depth":0,"parameterNumber":3,"parameterNumberName":"V-component_of_WINDS"},"data":[0,0,0,0,0,0,0,0,0,0,0,0,0,0,0,0,0,0,0,0,0,0,0,0,0,0,0,0,0,0,0,0,0,0,0,0,0,0,0,0,0,0,0,0,0,0,0,0,0,0,0,0,0,0,0,0,0,0,0.5439,0.5439,0,0.5423,0.5423,0.5423,0.5415,0.5415,0.5415,0.5415,0.5396,0.5396,0.5395,0,0,0,0,0,0,0,0,0,0,0,0,0,0.5461,0.5461,0.5439,0.5439,0.5439,0.5423,0.5423,0.5423,0.5415,0.5415,0.5415,0.5415,0.5397,0.5396,0.5395,0,0,0,0,0,0,0,0,0,0,0,0,0,0.5449,0.5461,0.5439,0.5433,0.5433,0.5423,0.5423,0.5423,0.5415,0.5415,0.5415,0.5415,0.5397,0.5396,0.5395,0.539,0,0,0.5393,0.5393,0,0,0,0,0,0,0,0,0.545,0.5448,0.5434,0.5434,0.5433,0.5421,0.5424,0.5412,0.5415,0.5422,0.5415,0.5415,0.5405,0.5403,0.54,0.5389,0.5388,0.5393,0.5392,0.5392,0.5392,0,0,0,0,0,0,0,0.545,0.5449,0.5433,0.5434,0.5433,0.5431,0.5429,0.5421,0.5413,0.5421,0.5421,0.5419,0.5404,0.5401,0.5399,0.5388,0.5393,0.5392,0.5392,0.5391,0.5371,0.537,0,0,0,0,0,0,0.5453,0.545,0.5433,0.5432,0.5442,0.543,0.5428,0.5425,0.5413,0.5412,0.5419,0.5419,0.5402,0.54,0.5399,0.5391,0.5392,0.5391,0.5391,0.5371,0.5371,0.537,0,0,0,0,0,0,0.5453,0.5451,0.5434,0.5441,0.5438,0.543,0.5426,0.5425,0.5421,0.5412,0.541,0.5417,0.5402,0.54,0.5392,0.539,0.5391,0.539,0.5371,0.5371,0.537,0.5376,0,0,0,0,0,0,0.5454,0.5452,0.545,0.5441,0.5438,0.5428,0.5426,0.5424,0.542,0.542,0.5409,0.5408,0.5402,0.5393,0.5391,0.5389,0.539,0.5371,0.5371,0.537,0.5376,0.5376,0.5376,0,0,0,0,0,0.5455,0.5452,0.545,0.5448,0.5436,0.5428,0.5427,0.5421,0.542,0.5418,0.5412,0.5408,0.5391,0.5393,0.539,0.5388,0.5371,0.5371,0.5371,0.5376,0.5376,0.5376,0,0,0,0,0,0,0.546,0.5451,0.5448,0.5443,0.5437,0.5427,0.5425,0.5421,0.5415,0.5414,0.5406,0.5404,0.5397,0.5392,0.5394,0.5382,0.538,0.538,0.5385,0.5386,0.5386,0.5387,0.5389,0,0,0,0,0,0.5461,0.5457,0.5448,0.5444,0.5441,0.5433,0.543,0.5426,0.5418,0.5416,0.5409,0.5401,0.5394,0.5389,0.5382,0.5375,0.5372,0.5372,0.5373,0.5373,0.5372,0.5367,0.5367,0.537,0.537,0.537,0,0,0.5462,0.5456,0.5454,0.5445,0.5439,0.5434,0.5431,0.5425,0.5421,0.5414,0.5407,0.5401,0.5392,0.5385,0.5381,0.538,0.5371,0.5373,0.5373,0.5372,0.5367,0.5367,0.5367,0.537,0.537,0.537,0,0,0.5462,0.5457,0.5453,0.5448,0.544,0.5435,0.5434,0.5425,0.5422,0.5414,0.5409,0.5403,0.5391,0.5385,0.538,0.5376,0.5372,0.5374,0.5375,0.537,0.537,0.537,0.5368,0.5368,0.5374,0.5374,0.5374,0,0.5464,0.5457,0.5451,0.5446,0.5442,0.5436,0.5431,0.5426,0.5416,0.5413,0.5412,0.5397,0.5391,0.5381,0.538,0.5377,0.5375,0.5375,0.5371,0.537,0.537,0.5368,0.5368,0.5374,0.5374,0.5374,0.5374,0,0.546,0.5455,0.5452,0.5443,0.5439,0.5434,0.5426,0.5422,0.5418,0.5413,0.5405,0.5397,0.5388,0.5385,0.5381,0.5375,0.5375,0.5372,0.5371,0.537,0.5368,0.5368,0.5374,0.5374,0.5374,0.5374,0,0,0.5463,0.5451,0.545,0.5446,0.5437,0.5432,0.5426,0.5418,0.5415,0.5408,0.5402,0.5392,0.539,0.5384,0.5379,0.5375,0.5372,0.5373,0.5373,0.5373,0.5364,0.5366,0.5365,0.5369,0.5369,0.5369,0.5365,0,0.5461,0.5452,0.5446,0.5439,0.5433,0.5428,0.5422,0.5416,0.541,0.5404,0.5398,0.5391,0.5388,0.5385,0.5381,0.5374,0.537,0.5374,0.5363,0.5363,0.5366,0.5364,0.5366,0.5362,0.5364,0.5364,0.5364,0,0.5458,0.5452,0.5444,0.5435,0.5432,0.5428,0.542,0.5414,0.5406,0.5402,0.5396,0.5391,0.5384,0.5383,0.5372,0.5375,0.537,0.5365,0.5365,0.5364,0.5363,0.5362,0.5361,0.536,0.5363,0.5363,0.5363,0,0.5461,0.545,0.5444,0.5441,0.543,0.5427,0.5422,0.5414,0.541,0.5402,0.5399,0.539,0.5385,0.5378,0.537,0.5371,0.536,0.5359,0.5356,0.5356,0.5354,0.5354,0.5351,0.5351,0.5351,0.5351,0.5351,0,0.5459,0.5455,0.5445,0.5442,0.5436,0.5429,0.5423,0.5418,0.541,0.5405,0.5399,0.5393,0.5384,0.5376,0.537,0.5362,0.536,0.5356,0.5354,0.5356,0.5357,0.5353,0.5353,0.5351,0.5351,0.5351,0.5351,0,0.5462,0.5455,0.5448,0.5439,0.5436,0.5432,0.5424,0.5419,0.5413,0.5406,0.5404,0.5394,0.5386,0.5377,0.5366,0.5361,0.5353,0.5351,0.5356,0.5355,0.5353,0.5353,0.5347,0.5346,0.5347,0.5347,0.5347,0,0.5461,0.5457,0.5448,0.5444,0.5439,0.5433,0.5429,0.5421,0.5416,0.5406,0.5403,0.5394,0.5386,0.5372,0.5364,0.5354,0.5352,0.5351,0.535,0.5353,0.5351,0.5352,0.5351,0.5351,0.5351,0.5351,0.5351,0,0.5461,0.5458,0.5452,0.5444,0.5439,0.5433,0.5426,0.5423,0.5414,0.5409,0.54,0.5394,0.5382,0.5373,0.5363,0.5357,0.5352,0.5351,0.535,0.5352,0.5355,0.5353,0.5356,0.5351,0.5351,0.5351,0.5351,0.5351,0.5461,0.5458,0.545,0.5443,0.5438,0.5432,0.5427,0.5421,0.5414,0.5404,0.54,0.5391,0.5382,0.5367,0.5361,0.5353,0.5352,0.5351,0.535,0.535,0.535,0.5356,0.5351,0.5351,0.5351,0.5351,0.5351,0,0.5461,0.5455,0.5449,0.544,0.5435,0.5432,0.5424,0.5419,0.5412,0.5404,0.5397,0.5387,0.5377,0.5368,0.5358,0.5354,0.5351,0.5351,0.5351,0.535,0.5352,0.5354,0.5353,0.5353,0.5353,0.5353,0.5353,0.5353,0.5459,0.5453,0.5449,0.5439,0.5434,0.5426,0.5422,0.5415,0.5409,0.5398,0.5391,0.5385,0.5376,0.5366,0.5357,0.5354,0.535,0.5351,0.5348,0.535,0.535,0.535,0.5351,0.535,0.535,0.5346,0.5346,0.5346]}]]